• In Hungary
  • List of Countries
  • For 7 days
  • Water Temperature
  • Satellite Maps
  • Weather Map
  • News
  • Weather Widgets
  • user-avatar
    Login

    Hourly Weather Vezhayka

    Today, 25 May, Friday

    Time Temperature Precipitation Wind Pressure Humidity
    00:00 +3°C° 0 mm 2 mps 750 mmHg 63%
    01:00 +2°C° 0 mm 2 mps 750 mmHg 65%
    02:00 +1°C° 0 mm 3 mps 750 mmHg 68%
    03:00 +1°C° 0 mm 3 mps 750 mmHg 71%
    04:00 +1°C° 0 mm 3 mps 750 mmHg 67%
    05:00 +2°C° 0 mm 3 mps 751 mmHg 64%
    06:00 +3°C° 0 mm 3 mps 751 mmHg 60%
    07:00 +3°C° 0 mm 3 mps 751 mmHg 55%
    08:00 +4°C° 0 mm 4 mps 751 mmHg 50%
    09:00 +4°C° 0 mm 4 mps 751 mmHg 45%
    10:00 +5°C° 0 mm 4 mps 752 mmHg 42%
    11:00 +6°C° 0 mm 4 mps 752 mmHg 39%
    12:00 +7°C° 0 mm 4 mps 752 mmHg 36%
    13:00 +8°C° 0 mm 4 mps 752 mmHg 34%
    14:00 +8°C° 0 mm 4 mps 752 mmHg 33%
    15:00 +10°C° 0 mm 4 mps 752 mmHg 31%
    16:00 +10°C° 0 mm 3 mps 752 mmHg 32%
    17:00 +10°C° 0 mm 3 mps 752 mmHg 33%
    18:00 +10°C° 0 mm 3 mps 753 mmHg 34%
    19:00 +8°C° 0 mm 2 mps 753 mmHg 41%
    20:00 +7°C° 0 mm 1 mps 753 mmHg 48%
    21:00 +4°C° 0 mm 0 mps 753 mmHg 55%
    22:00 +5°C° 0 mm 1 mps 753 mmHg 57%
    23:00 +5°C° 0 mm 1 mps 753 mmHg 59%

    Tomorrow, 26 May, Saturday

    Time Temperature Precipitation Wind Pressure Humidity
    00:00 +3°C° 0 mm 2 mps 753 mmHg 61%
    01:00 +4°C° 0 mm 2 mps 753 mmHg 61%
    02:00 +4°C° 0 mm 2 mps 753 mmHg 61%
    03:00 +4°C° 0 mm 2 mps 753 mmHg 61%
    04:00 +6°C° 0 mm 2 mps 753 mmHg 57%
    05:00 +7°C° 0 mm 3 mps 752 mmHg 54%
    06:00 +9°C° 0 mm 3 mps 752 mmHg 50%
    07:00 +10°C° 0 mm 3 mps 752 mmHg 47%
    08:00 +12°C° 0 mm 3 mps 752 mmHg 44%
    09:00 +14°C° 0 mm 3 mps 751 mmHg 40%
    10:00 +16°C° 0 mm 3 mps 751 mmHg 38%
    11:00 +17°C° 0 mm 3 mps 750 mmHg 36%
    12:00 +19°C° 0 mm 3 mps 750 mmHg 34%
    13:00 +19°C° 0 mm 3 mps 749 mmHg 33%
    14:00 +20°C° 0 mm 3 mps 748 mmHg 32%
    15:00 +20°C° 0 mm 4 mps 748 mmHg 32%
    16:00 +20°C° 0 mm 3 mps 747 mmHg 35%
    17:00 +20°C° 0 mm 2 mps 746 mmHg 39%
    18:00 +19°C° 0 mm 2 mps 745 mmHg 42%
    19:00 +18°C° 0 mm 2 mps 745 mmHg 46%
    20:00 +17°C° 0 mm 3 mps 744 mmHg 49%
    21:00 +17°C° 0 mm 3 mps 743 mmHg 53%
    22:00 +15°C° 0 mm 4 mps 743 mmHg 55%
    23:00 +14°C° 0 mm 5 mps 744 mmHg 57%

    Day after tomorrow, 27 May, Sunday

    Time Temperature Precipitation Wind Pressure Humidity
    00:00 +13°C° 0 mm 5 mps 744 mmHg 59%
    01:00 +11°C° 0 mm 4 mps 744 mmHg 62%
    02:00 +9°C° 0 mm 3 mps 745 mmHg 65%
    03:00 +7°C° 0 mm 2 mps 745 mmHg 68%
    04:00 +7°C° 0 mm 2 mps 746 mmHg 63%
    05:00 +8°C° 0 mm 2 mps 746 mmHg 58%
    06:00 +8°C° 0 mm 2 mps 746 mmHg 52%
    07:00 +9°C° 0 mm 3 mps 746 mmHg 47%
    08:00 +11°C° 0 mm 4 mps 745 mmHg 42%
    09:00 +12°C° 0 mm 5 mps 745 mmHg 37%
    10:00 +12°C° 0 mm 5 mps 745 mmHg 37%
    11:00 +12°C° 0 mm 5 mps 745 mmHg 36%
    12:00 +12°C° 0 mm 5 mps 744 mmHg 35%
    13:00 +10°C° 0 mm 5 mps 744 mmHg 36%
    14:00 +10°C° 0 mm 5 mps 744 mmHg 37%
    15:00 +10°C° 0 mm 5 mps 744 mmHg 37%
    16:00 +9°C° 0.1 mm 5 mps 744 mmHg 41%
    17:00 +9°C° 0.1 mm 5 mps 744 mmHg 44%
    18:00 +8°C° 0.1 mm 5 mps 744 mmHg 48%
    19:00 +7°C° 0.1 mm 5 mps 744 mmHg 51%
    20:00 +5°C° 0.1 mm 4 mps 745 mmHg 54%
    21:00 +4°C° 0.1 mm 4 mps 745 mmHg 58%
    22:00 +3°C° 0 mm 4 mps 745 mmHg 57%
    23:00 +1°C° 0 mm 4 mps 745 mmHg 57%

    28 May, Monday

    Time Temperature Precipitation Wind Pressure Humidity
    00:00 0°C° 0 mm 4 mps 745 mmHg 57%
    01:00 0°C° 0 mm 5 mps 745 mmHg 59%
    02:00 0°C° 0 mm 5 mps 745 mmHg 62%
    03:00 0°C° 0 mm 5 mps 746 mmHg 65%
    04:00 +1°C° 0 mm 5 mps 746 mmHg 62%
    05:00 +1°C° 0 mm 6 mps 746 mmHg 59%
    06:00 +2°C° 0 mm 6 mps 746 mmHg 55%
    07:00 +2°C° 0 mm 6 mps 747 mmHg 53%
    08:00 +3°C° 0 mm 6 mps 747 mmHg 51%
    09:00 +3°C° 0 mm 6 mps 747 mmHg 49%
    10:00 +4°C° 0 mm 6 mps 748 mmHg 47%
    11:00 +5°C° 0 mm 6 mps 748 mmHg 46%
    12:00 +5°C° 0 mm 6 mps 749 mmHg 44%
    13:00 +7°C° 0 mm 6 mps 749 mmHg 44%
    14:00 +7°C° 0 mm 6 mps 749 mmHg 43%
    15:00 +7°C° 0 mm 6 mps 749 mmHg 43%
    16:00 +7°C° 0 mm 5 mps 749 mmHg 43%
    17:00 +7°C° 0 mm 5 mps 749 mmHg 43%
    18:00 +8°C° 0 mm 4 mps 749 mmHg 43%
    19:00 +7°C° 0 mm 3 mps 749 mmHg 50%
    20:00 +5°C° 0 mm 2 mps 749 mmHg 56%
    21:00 +5°C° 0 mm 1 mps 748 mmHg 62%
    22:00 +4°C° 0 mm 1 mps 748 mmHg 65%
    23:00 +4°C° 0 mm 1 mps 748 mmHg 68%

    29 May, Tuesday

    Time Temperature Precipitation Wind Pressure Humidity
    00:00 +4°C° 0 mm 1 mps 748 mmHg 70%
    01:00 +3°C° 0 mm 1 mps 748 mmHg 73%
    02:00 +3°C° 0 mm 1 mps 749 mmHg 75%
    03:00 +3°C° 0 mm 1 mps 749 mmHg 77%
    04:00 +4°C° 0 mm 1 mps 749 mmHg 70%
    05:00 +5°C° 0 mm 1 mps 749 mmHg 62%
    06:00 +7°C° 0 mm 1 mps 749 mmHg 54%
    07:00 +7°C° 0 mm 2 mps 749 mmHg 49%
    08:00 +8°C° 0 mm 2 mps 749 mmHg 43%
    09:00 +10°C° 0 mm 2 mps 748 mmHg 38%
    10:00 +12°C° 0 mm 2 mps 748 mmHg 37%
    11:00 +12°C° 0 mm 3 mps 747 mmHg 36%
    12:00 +13°C° 0 mm 3 mps 747 mmHg 36%
    13:00 +13°C° 0 mm 3 mps 746 mmHg 39%
    14:00 +13°C° 0 mm 3 mps 745 mmHg 42%
    15:00 +13°C° 0 mm 3 mps 745 mmHg 46%
    16:00 +12°C° 0.5 mm 3 mps 744 mmHg 60%
    17:00 +10°C° 0.5 mm 2 mps 742 mmHg 74%
    18:00 +8°C° 0.5 mm 2 mps 741 mmHg 88%
    19:00 +9°C° 1.3 mm 1 mps 740 mmHg 92%
    20:00 +8°C° 1.3 mm 1 mps 739 mmHg 95%
    21:00 +8°C° 1.3 mm 1 mps 738 mmHg 98%
    22:00 +8°C° 0.8 mm 1 mps 738 mmHg 98%
    23:00 +8°C° 0.8 mm 1 mps 737 mmHg 98%

    30 May, Wednesday

    Time Temperature Precipitation Wind Pressure Humidity
    00:00 +8°C° 0.8 mm 1 mps 737 mmHg 98%
    01:00 +8°C° 0.1 mm 1 mps 736 mmHg 98%
    02:00 +8°C° 0.1 mm 1 mps 736 mmHg 97%
    03:00 +7°C° 0.1 mm 2 mps 736 mmHg 97%
    04:00 +7°C° 0.2 mm 3 mps 736 mmHg 93%
    05:00 +7°C° 0.2 mm 3 mps 736 mmHg 90%
    06:00 +6°C° 0.2 mm 4 mps 736 mmHg 87%
    07:00 +6°C° 0.1 mm 4 mps 736 mmHg 83%
    08:00 +6°C° 0.1 mm 5 mps 735 mmHg 78%
    09:00 +7°C° 0.1 mm 5 mps 735 mmHg 74%
    10:00 +7°C° 0.4 mm 5 mps 735 mmHg 74%
    11:00 +7°C° 0.4 mm 5 mps 735 mmHg 74%
    12:00 +7°C° 0.4 mm 5 mps 735 mmHg 73%
    13:00 +7°C° 0.3 mm 5 mps 735 mmHg 74%
    14:00 +7°C° 0.3 mm 5 mps 735 mmHg 74%
    15:00 +7°C° 0.3 mm 5 mps 735 mmHg 74%
    16:00 +7°C° 0.2 mm 5 mps 735 mmHg 76%
    17:00 +6°C° 0.2 mm 4 mps 735 mmHg 77%
    18:00 +6°C° 0.2 mm 4 mps 736 mmHg 79%
    19:00 +6°C° 0.1 mm 4 mps 736 mmHg 82%
    20:00 +5°C° 0.1 mm 4 mps 736 mmHg 85%
    21:00 +5°C° 0.1 mm 3 mps 736 mmHg 88%
    22:00 +4°C° 0 mm 3 mps 736 mmHg 89%
    23:00 +4°C° 0 mm 3 mps 736 mmHg 91%
    Show more